EW7199 Weather Reports


time (UTC)temp
F
wind
direction
speed
knots
gust
knots
rain 1hr
in
rain 24hr
in
rain mn
in
humidity
%
barometer
mb
20260903081908 83 255 1.7 2.6 0.00 0.00 0.00 59 1015.0
20260903081408 83 235 1.7 2.6 0.00 0.00 0.00 60 1015.0
20260903080909 83 249 1.7 2.6 0.00 0.00 0.00 60 1015.0
20260903080409 83 259 1.7 2.6 0.00 0.00 0.00 61 1015.0
20260903075908 82 249 1.7 2.6 0.00 0.00 0.00 62 1015.0
20260903075408 82 256 1.7 2.6 0.00 0.00 0.00 61 1015.0
20260903074908 82 248 1.7 2.6 0.00 0.00 0.00 62 1015.0
20260903074408 82 275 1.7 2.6 0.00 0.00 0.00 61 1015.0
20260903073909 82 245 1.7 2.6 0.00 0.00 0.00 62 1015.0
20260903073407 82 271 1.7 2.6 0.00 0.00 0.00 63 1015.0
20260903072908 81 246 1.7 2.6 0.00 0.00 0.00 62 1015.0
20260903072410 81 271 1.7 2.6 0.00 0.00 0.00 63 1015.0
20260903071909 81 271 2.6 2.6 0.00 0.00 0.00 62 1014.9
20260903071408 81 258 1.7 2.6 0.00 0.00 0.00 63 1015.0
20260903070909 81 269 1.7 2.6 0.00 0.00 0.00 63 1014.9
20260903070409 81 257 1.7 2.6 0.00 0.00 0.00 64 1014.9
20260903065409 81 254 1.7 2.6 0.00 0.00 0.00 64 1014.9
20260903064915 80 257 1.7 2.6 0.00 0.00 0.00 64 1014.8
20260903064410 80 260 1.7 2.6 0.00 0.00 0.00 65 1014.8
20260903063909 80 272 2.6 2.6 0.00 0.00 0.00 64 1014.8
20260903063409 80 257 1.7 2.6 0.00 0.00 0.00 65 1014.9
20260903062908 80 270 2.6 2.6 0.00 0.00 0.00 65 1014.8
20260903062408 80 267 2.6 2.6 0.00 0.00 0.00 65 1014.9
20260903061410 80 276 1.7 2.6 0.00 0.00 0.00 66 1015.0
20260903060910 80 255 1.7 2.6 0.00 0.00 0.00 66 1015.0
20260903060409 80 255 0.9 2.6 0.00 0.00 0.00 67 1015.0
20260903055409 80 270 1.7 2.6 0.00 0.00 0.00 67 1015.0
20260903054411 80 259 2.6 2.6 0.00 0.00 0.00 68 1015.0
20260903053909 80 264 1.7 2.6 0.00 0.00 0.00 69 1014.9
20260903052909 80 280 1.7 2.6 0.00 0.00 0.00 72 1014.8
20260903052410 80 245 1.7 2.6 0.00 0.00 0.00 72 1014.8
20260903051909 80 308 0.9 2.6 0.00 0.00 0.00 72 1014.8
20260903050908 80 228 1.7 2.6 0.00 0.00 0.00 72 1014.8
20260903050409 80 241 1.7 2.6 0.00 0.00 0.00 72 1014.8
20260903045910 80 247 1.7 2.6 0.00 0.00 0.00 72 1014.8
20260903045409 79 277 0.9 2.6 0.00 0.00 0.00 72 1014.8
20260903044908 79 289 1.7 2.6 0.00 0.00 0.00 72 1014.8
20260903044409 79 262 1.7 2.6 0.00 0.00 0.00 71 1014.8
20260903043908 80 271 0.9 2.6 0.00 0.00 0.00 71 1014.7
20260903043408 80 277 1.7 2.6 0.00 0.00 0.00 71 1014.7
20260903042908 80 281 0.9 2.6 0.00 0.00 0.00 71 1014.7
20260903042408 80 285 1.7 2.6 0.00 0.00 0.00 71 1014.7
20260903041908 80 289 1.7 2.6 0.00 0.00 0.00 70 1014.7
20260903041408 80 278 1.7 2.6 0.00 0.00 0.00 70 1014.6
20260903040909 80 313 1.7 2.6 0.00 0.00 0.00 69 1014.7
20260903040409 80 306 1.7 2.6 0.00 0.00 0.00 69 1014.6
20260903034909 80 290 0.9 2.6 0.00 0.00 0.00 68 1014.6
20260903034409 80 277 1.7 2.6 0.00 0.00 0.00 68 1014.5
20260903033908 80 287 0.9 2.6 0.00 0.00 0.00 68 1014.5
20260903033410 80 260 1.7 2.6 0.00 0.00 0.00 68 1014.5
20260903032909 80 246 0.9 2.6 0.00 0.00 0.00 68 1014.5
20260903032407 80 265 1.7 2.6 0.00 0.00 0.00 69 1014.6
20260903031909 80 264 1.7 2.6 0.00 0.00 0.00 70 1014.6
20260903031409 80 260 0.9 2.6 0.00 0.00 0.00 69 1014.6
20260903030909 80 324 0.0 1.7 0.00 0.00 0.00 69 1014.6
20260903030409 80 330 0.0 1.7 0.00 0.00 0.00 69 1014.6
20260903025910 80 34 0.9 2.6 0.00 0.00 0.00 68 1014.6
20260903024909 80 16 0.0 0.0 0.00 0.00 0.00 67 1014.6
20260903023909 80 138 0.0 1.7 0.00 0.00 0.00 67 1014.7
20260903023408 79 138 0.0 0.9 0.00 0.00 0.00 66 1014.8
20260903022908 79 137 0.9 1.7 0.00 0.00 0.00 67 1014.8
20260903022408 80 133 0.0 1.7 0.00 0.00 0.00 68 1014.8
20260903021909 80 108 0.0 1.7 0.00 0.00 0.00 67 1014.8
20260903021409 81 91 0.9 2.6 0.00 0.00 0.00 65 1014.7
20260903020909 81 74 0.0 0.0 0.00 0.00 0.00 64 1014.8
20260903015908 81 310 0.0 0.0 0.00 0.00 0.00 63 1014.8
20260903015408 80 312 0.0 0.0 0.00 0.00 0.00 63 1014.8
20260903014908 80 296 0.0 0.0 0.00 0.00 0.00 65 1014.9
20260903014408 80 296 0.0 0.0 0.00 0.00 0.00 65 1014.9
20260903013908 81 296 0.0 0.0 0.00 0.00 0.00 65 1014.8
20260903012909 81 296 0.0 0.0 0.00 0.00 0.00 66 1014.9
20260903012409 81 296 0.0 0.0 0.00 0.00 0.00 66 1014.9
20260903011908 81 303 0.0 0.0 0.00 0.00 0.00 65 1014.9
20260903011410 81 309 0.0 0.0 0.00 0.00 0.00 67 1014.9
20260903010909 81 309 0.0 1.7 0.00 0.00 0.00 67 1014.9
20260903010409 81 296 0.9 2.6 0.00 0.00 0.00 67 1014.9
20260903005908 81 254 0.9 1.7 0.00 0.00 0.00 67 1014.9
20260903005409 81 240 0.9 2.6 0.00 0.00 0.00 66 1014.9
20260903004909 81 264 1.7 2.6 0.00 0.00 0.00 65 1014.9
20260903004409 81 278 1.7 2.6 0.00 0.00 0.00 66 1014.8
20260903003408 81 272 1.7 2.6 0.00 0.00 0.00 68 1014.9
20260903002908 81 265 1.7 2.6 0.00 0.00 0.00 67 1014.9
20260903002408 81 235 1.7 2.6 0.00 0.00 0.00 67 1014.9
20260903000908 82 255 1.7 2.6 0.00 0.00 0.00 61 1014.9
20260902235910 82 256 1.7 2.6 0.00 0.00 0.00 60 1014.9
20260902235408 83 259 0.9 1.7 0.00 0.00 0.00 58 1014.9
20260902233408 82 301 0.9 2.6 0.00 0.00 0.00 57 1014.9
20260902232908 82 250 0.9 2.6 0.00 0.00 0.00 57 1015.0
20260902232407 82 258 1.7 2.6 0.00 0.00 0.00 60 1015.0
20260902231909 82 250 1.7 2.6 0.00 0.00 0.00 63 1015.0
20260902231406 82 260 1.7 2.6 0.00 0.00 0.00 61 1015.1
20260902230909 81 254 1.7 2.6 0.00 0.00 0.00 64 1015.1
20260902230409 81 246 1.7 2.6 0.00 0.00 0.00 65 1015.1
20260902225909 81 255 0.9 2.6 0.00 0.00 0.00 66 1015.1
20260902225408 81 257 0.9 2.6 0.00 0.00 0.00 67 1015.2
20260902224908 81 254 0.9 2.6 0.00 0.00 0.00 68 1015.2
20260902224409 81 263 1.7 2.6 0.00 0.00 0.00 68 1015.2
20260902223908 81 265 2.6 2.6 0.00 0.00 0.00 66 1015.2
20260902223409 82 263 1.7 2.6 0.00 0.00 0.00 68 1015.2
20260902222910 82 259 1.7 2.6 0.00 0.00 0.00 67 1015.2
20260902222409 82 253 0.9 2.6 0.00 0.00 0.00 65 1015.1
20260902221908 82 292 0.9 2.6 0.00 0.00 0.00 65 1015.1
20260902221408 82 258 1.7 2.6 0.00 0.00 0.00 69 1015.1
20260902220908 81 275 0.9 1.7 0.00 0.00 0.00 70 1015.1
20260902220408 81 312 1.7 2.6 0.00 0.00 0.00 73 1015.1
20260902215909 81 275 1.7 2.6 0.00 0.00 0.00 74 1015.1
20260902215409 81 257 1.7 2.6 0.00 0.00 0.00 73 1015.1
20260902214410 81 265 1.7 1.7 0.00 0.00 0.00 72 1015.2
20260902213909 81 252 1.7 1.7 0.00 0.00 0.00 72 1015.1
20260902213409 81 243 0.9 1.7 0.00 0.00 0.00 73 1015.2
20260902212408 81 246 0.9 1.7 0.00 0.00 0.00 72 1015.2
20260902211909 81 245 0.9 1.7 0.00 0.00 0.00 72 1015.3
20260902211409 81 244 1.7 1.7 0.00 0.00 0.00 73 1015.2
20260902210910 81 251 0.0 0.9 0.00 0.00 0.00 74 1015.2
20260902210409 81 251 0.9 1.7 0.00 0.00 0.00 74 1015.2
20260902205909 81 251 0.9 1.7 0.00 0.00 0.00 74 1015.2
20260902205409 81 247 1.7 1.7 0.00 0.00 0.00 74 1015.3
20260902204910 81 249 0.9 1.7 0.00 0.00 0.00 74 1015.3
20260902204409 81 243 0.9 1.7 0.00 0.00 0.00 74 1015.3
20260902203914 81 256 0.9 2.6 0.00 0.00 0.00 73 1015.2
20260902203409 81 255 1.7 1.7 0.00 0.00 0.00 72 1015.3
20260902202909 82 238 1.7 1.7 0.00 0.00 0.00 73 1015.3
20260902202408 82 251 0.9 1.7 0.00 0.00 0.00 72 1015.3
20260902201908 82 244 0.9 1.7 0.00 0.00 0.00 72 1015.3
20260902201409 82 258 0.9 2.6 0.00 0.00 0.00 71 1015.2
20260902200909 82 298 0.9 1.7 0.00 0.00 0.00 71 1015.1
20260902200408 82 319 0.0 0.0 0.00 0.00 0.00 71 1015.1
20260902195409 82 323 0.9 1.7 0.00 0.00 0.00 70 1015.2
20260902194408 82 307 0.0 0.9 0.00 0.00 0.00 69 1015.2
20260902193908 82 84 0.0 1.7 0.00 0.00 0.00 68 1015.1
20260902193409 82 52 0.9 2.6 0.00 0.00 0.00 68 1015.1
20260902192409 82 277 0.9 2.6 0.00 0.00 0.00 67 1015.2
20260902191409 81 298 1.7 2.6 0.00 0.00 0.00 68 1015.3
20260902190909 81 301 0.9 2.6 0.00 0.00 0.00 69 1015.3
20260902185908 81 226 0.9 2.6 0.00 0.00 0.00 70 1015.2
20260902185410 81 254 0.9 2.6 0.00 0.00 0.00 71 1015.1
20260902184909 81 273 1.7 2.6 0.00 0.00 0.00 72 1015.1
20260902184409 81 268 2.6 2.6 0.00 0.00 0.00 72 1015.1
20260902183908 81 264 2.6 2.6 0.00 0.00 0.00 70 1015.1
20260902183408 81 266 1.7 2.6 0.00 0.00 0.00 70 1015.1
20260902182908 81 271 1.7 2.6 0.00 0.00 0.00 70 1015.0
20260902182408 81 259 1.7 2.6 0.00 0.00 0.00 70 1015.0
20260902181909 81 273 1.7 2.6 0.00 0.00 0.00 72 1014.8
20260902181408 81 263 1.7 2.6 0.00 0.00 0.00 70 1014.8
20260902180908 81 258 1.7 2.6 0.00 0.00 0.00 70 1014.8
20260902180408 81 255 2.6 2.6 0.00 0.00 0.00 70 1014.8
20260902175908 81 262 2.6 2.6 0.00 0.00 0.00 72 1014.7
20260902175408 81 268 2.6 2.6 0.00 0.00 0.00 72 1014.7
20260902174908 81 260 1.7 2.6 0.00 0.00 0.00 72 1014.7
20260902174409 81 256 2.6 4.3 0.00 0.00 0.00 71 1014.7
20260902173909 81 244 2.6 2.6 0.00 0.00 0.00 70 1014.6
20260902173410 81 272 2.6 5.2 0.00 0.00 0.00 68 1014.8
20260902172910 80 263 2.6 5.2 0.00 0.00 0.00 73 1014.9
20260902172408 81 262 2.6 2.6 0.00 0.00 0.00 74 1014.8
20260902171908 81 249 2.6 5.2 0.00 0.00 0.00 74 1014.8
20260902171408 82 247 2.6 2.6 0.00 0.00 0.00 73 1014.8
20260902170409 82 239 2.6 2.6 0.00 0.00 0.00 75 1014.8
20260902165407 82 243 2.6 2.6 0.00 0.00 0.00 71 1015.0
20260902164909 82 234 2.6 2.6 0.00 0.00 0.00 70 1015.2
20260902163409 82 260 1.7 2.6 0.00 0.00 0.00 71 1015.4
20260902162909 82 268 2.6 2.6 0.00 0.00 0.00 71 1015.4
20260902162409 82 261 2.6 2.6 0.00 0.00 0.00 72 1015.5
20260902161908 82 259 2.6 2.6 0.00 0.00 0.00 71 1015.5
20260902161410 82 263 1.7 2.6 0.00 0.00 0.00 71 1015.5
20260902160909 81 254 0.9 2.6 0.00 0.00 0.00 72 1015.6
20260902160409 81 275 1.7 2.6 0.00 0.00 0.00 72 1015.6
20260902155908 81 247 1.7 5.2 0.00 0.00 0.00 73 1015.7
20260902155409 81 264 2.6 7.0 0.00 0.00 0.00 72 1015.8
20260902154909 82 258 2.6 6.1 0.00 0.00 0.00 70 1015.7
20260902153909 82 256 1.7 6.1 0.00 0.00 0.00 66 1015.7
20260902153408 82 246 4.3 6.1 0.00 0.00 0.00 64 1015.8
20260902152908 83 265 5.2 7.8 0.00 0.00 0.00 66 1015.9
20260902152408 84 264 4.3 6.1 0.00 0.00 0.00 69 1015.8
20260902151908 84 257 2.6 5.2 0.00 0.00 0.00 69 1015.7
20260902151408 85 263 1.7 4.3 0.00 0.00 0.00 68 1015.5
20260902150908 85 269 2.6 5.2 0.00 0.00 0.00 66 1015.5
20260902150408 85 233 2.6 6.1 0.00 0.00 0.00 66 1015.4
20260902145908 86 250 2.6 5.2 0.00 0.00 0.00 69 1015.5
20260902145408 86 241 4.3 4.3 0.00 0.00 0.00 68 1015.3
20260902144909 88 236 2.6 4.3 0.00 0.00 0.00 67 1015.0
20260902144409 90 242 1.7 4.3 0.00 0.00 0.00 53 1014.9
20260902143908 90 131 0.0 2.6 0.00 0.00 0.00 45 1014.8
20260902143409 90 90 0.9 2.6 0.00 0.00 0.00 45 1014.6
20260902142908 90 140 0.9 2.6 0.00 0.00 0.00 45 1014.6
20260902142408 90 78 1.7 2.6 0.00 0.00 0.00 44 1014.6
20260902141908 91 77 0.9 2.6 0.00 0.00 0.00 47 1014.8
20260902141408 91 203 0.0 1.7 0.00 0.00 0.00 50 1014.7
20260902140908 91 212 0.0 2.6 0.00 0.00 0.00 49 1014.7
20260902140408 91 214 0.9 1.7 0.00 0.00 0.00 48 1014.7
20260902135906 91 237 0.9 1.7 0.00 0.00 0.00 46 1014.7
20260902134410 91 230 0.9 1.7 0.00 0.00 0.00 45 1014.8
20260902133407 92 138 1.7 2.6 0.00 0.00 0.00 46 1014.4
20260902132409 93 212 1.7 2.6 0.00 0.00 0.00 43 1014.5
20260902131907 93 206 0.9 2.6 0.00 0.00 0.00 44 1014.2
20260902131408 93 198 0.9 2.6 0.00 0.00 0.00 44 1014.4
20260902130908 92 211 1.7 2.6 0.00 0.00 0.00 46 1014.5
20260902130408 92 235 1.7 2.6 0.00 0.00 0.00 48 1014.4
20260902125907 92 224 2.6 2.6 0.00 0.00 0.00 48 1014.6
20260902125408 93 222 1.7 4.3 0.00 0.00 0.00 46 1014.6
20260902124908 93 211 1.7 4.3 0.00 0.00 0.00 44 1014.7
20260902124411 92 227 1.7 2.6 0.00 0.00 0.00 47 1014.7
20260902123906 92 233 2.6 2.6 0.00 0.00 0.00 46 1014.8
20260902123408 92 229 1.7 2.6 0.00 0.00 0.00 47 1014.8
20260902122908 91 219 1.7 4.3 0.00 0.00 0.00 49 1014.8
20260902122408 91 221 2.6 4.3 0.00 0.00 0.00 49 1015.0
20260902121912 91 236 2.6 4.3 0.00 0.00 0.00 51 1015.0
20260902121407 91 244 2.6 4.3 0.00 0.00 0.00 51 1015.1
20260902120908 91 248 2.6 2.6 0.00 0.00 0.00 50 1015.2
20260902115407 91 225 1.7 4.3 0.00 0.00 0.00 50 1015.3
20260902114907 92 229 2.6 4.3 0.00 0.00 0.00 51 1015.3
20260902114408 92 233 1.7 2.6 0.00 0.00 0.00 48 1015.3
20260902113908 92 223 2.6 2.6 0.00 0.00 0.00 46 1015.3
20260902113408 92 221 2.6 2.6 0.00 0.00 0.00 46 1015.4
20260902112908 92 225 2.6 2.6 0.00 0.00 0.00 46 1015.4
20260902112409 92 232 1.7 2.6 0.00 0.00 0.00 47 1015.5
20260902111908 92 216 1.7 2.6 0.00 0.00 0.00 45 1015.5
20260902111408 91 215 1.7 2.6 0.00 0.00 0.00 47 1015.5
20260902110908 91 229 2.6 2.6 0.00 0.00 0.00 48 1015.6
20260902110407 91 225 1.7 2.6 0.00 0.00 0.00 47 1015.6
20260902105408 91 218 1.7 2.6 0.00 0.00 0.00 48 1015.8
20260902104908 90 231 1.7 2.6 0.00 0.00 0.00 48 1015.8
20260902104407 90 225 2.6 2.6 0.00 0.00 0.00 48 1015.9
20260902103908 89 227 2.6 2.6 0.00 0.00 0.00 49 1016.0
20260902103408 89 222 2.6 2.6 0.00 0.00 0.00 50 1016.1
20260902102908 89 228 2.6 2.6 0.00 0.00 0.00 52 1016.2
20260902102408 89 229 1.7 2.6 0.00 0.00 0.00 55 1016.2
20260902101907 88 225 2.6 2.6 0.00 0.00 0.00 55 1016.2
20260902101407 88 220 2.6 2.6 0.00 0.00 0.00 60 1016.3
20260902100908 87 217 2.6 4.3 0.00 0.00 0.00 60 1016.3
20260902100409 87 246 2.6 4.3 0.00 0.00 0.00 62 1016.4
20260902095908 87 223 2.6 2.6 0.00 0.00 0.00 60 1016.4
20260902094908 87 220 1.7 2.6 0.00 0.00 0.00 60 1016.4
20260902093908 86 246 1.7 2.6 0.00 0.00 0.00 64 1016.3
20260902093407 87 247 1.7 2.6 0.00 0.00 0.00 63 1016.3
20260902092407 87 250 1.7 2.6 0.00 0.00 0.00 65 1016.4
20260902091907 86 214 1.7 2.6 0.00 0.00 0.00 62 1016.4
20260902091407 86 223 2.6 2.6 0.00 0.00 0.00 60 1016.4
20260902090908 86 224 2.6 2.6 0.00 0.00 0.00 62 1016.4
20260902090407 86 246 1.7 2.6 0.00 0.00 0.00 61 1016.4
20260902085907 86 235 2.6 2.6 0.00 0.00 0.00 62 1016.4
20260902085408 86 247 2.6 2.6 0.00 0.00 0.00 59 1016.5
20260902084906 86 246 1.7 2.6 0.00 0.00 0.00 58 1016.5
20260902084407 86 263 1.7 2.6 0.00 0.00 0.00 58 1016.5
20260902083908 86 238 1.7 2.6 0.00 0.00 0.00 59 1016.5
20260902083408 85 229 0.9 2.6 0.00 0.00 0.00 59 1016.5
20260902082907 85 248 1.7 2.6 0.00 0.00 0.00 60 1016.5
20260902082407 85 230 1.7 2.6 0.00 0.00 0.00 60 1016.5